• In Uzbekistan
  • List of Countries
  • For 7 days
  • Water Temperature
  • Satellite Maps
  • Weather Map
  • Weather Widgets
  • user-avatar
    Login

    Hourly Weather Paphos

    Today, 23 September, Sunday

    Time Temperature Precipitation Wind Pressure Humidity
    00:00 +26°C° 0 mm 4 mps 759 mmHg 80%
    01:00 +26°C° 0 mm 4 mps 759 mmHg 81%
    02:00 +25°C° 0 mm 4 mps 759 mmHg 83%
    03:00 +25°C° 0 mm 4 mps 759 mmHg 84%
    04:00 +25°C° 0 mm 4 mps 759 mmHg 85%
    05:00 +25°C° 0 mm 4 mps 759 mmHg 86%
    06:00 +26°C° 0 mm 3 mps 759 mmHg 77%
    07:00 +28°C° 0 mm 3 mps 759 mmHg 69%
    08:00 +29°C° 0 mm 3 mps 759 mmHg 60%
    09:00 +30°C° 0 mm 3 mps 760 mmHg 56%
    10:00 +31°C° 0 mm 3 mps 760 mmHg 52%
    11:00 +33°C° 0 mm 3 mps 760 mmHg 48%
    12:00 +33°C° 0 mm 3 mps 760 mmHg 50%
    13:00 +33°C° 0 mm 4 mps 760 mmHg 53%
    14:00 +33°C° 0 mm 4 mps 760 mmHg 55%
    15:00 +33°C° 0 mm 4 mps 759 mmHg 59%
    16:00 +32°C° 0 mm 4 mps 759 mmHg 63%
    17:00 +30°C° 0 mm 4 mps 759 mmHg 67%
    18:00 +30°C° 0 mm 4 mps 759 mmHg 72%
    19:00 +29°C° 0 mm 4 mps 759 mmHg 78%
    20:00 +28°C° 0 mm 4 mps 759 mmHg 83%
    21:00 +28°C° 0 mm 4 mps 760 mmHg 84%
    22:00 +27°C° 0 mm 4 mps 760 mmHg 86%
    23:00 +27°C° 0 mm 4 mps 760 mmHg 87%

    Tomorrow, 24 September, Monday

    Time Temperature Precipitation Wind Pressure Humidity
    00:00 +27°C° 0 mm 3 mps 760 mmHg 86%
    01:00 +26°C° 0 mm 3 mps 759 mmHg 85%
    02:00 +26°C° 0 mm 3 mps 759 mmHg 84%
    03:00 +26°C° 0 mm 3 mps 759 mmHg 79%
    04:00 +26°C° 0 mm 3 mps 759 mmHg 75%
    05:00 +25°C° 0 mm 2 mps 759 mmHg 70%
    06:00 +27°C° 0 mm 2 mps 759 mmHg 60%
    07:00 +29°C° 0 mm 2 mps 759 mmHg 51%
    08:00 +31°C° 0 mm 1 mps 760 mmHg 41%
    09:00 +32°C° 0 mm 1 mps 760 mmHg 40%
    10:00 +34°C° 0 mm 2 mps 760 mmHg 39%
    11:00 +35°C° 0 mm 2 mps 760 mmHg 38%
    12:00 +35°C° 0 mm 2 mps 759 mmHg 40%
    13:00 +34°C° 0 mm 3 mps 759 mmHg 43%
    14:00 +34°C° 0 mm 3 mps 759 mmHg 46%
    15:00 +33°C° 0 mm 4 mps 758 mmHg 51%
    16:00 +33°C° 0 mm 4 mps 758 mmHg 55%
    17:00 +32°C° 0 mm 4 mps 758 mmHg 60%
    18:00 +30°C° 0 mm 4 mps 758 mmHg 67%
    19:00 +29°C° 0 mm 4 mps 758 mmHg 74%
    20:00 +28°C° 0 mm 4 mps 758 mmHg 81%
    21:00 +27°C° 0 mm 4 mps 758 mmHg 82%
    22:00 +27°C° 0 mm 4 mps 758 mmHg 84%
    23:00 +27°C° 0 mm 4 mps 758 mmHg 85%

    Day after tomorrow, 25 September, Tuesday

    Time Temperature Precipitation Wind Pressure Humidity
    00:00 +26°C° 0 mm 4 mps 758 mmHg 86%
    01:00 +26°C° 0 mm 4 mps 758 mmHg 87%
    02:00 +26°C° 0 mm 4 mps 757 mmHg 87%
    03:00 +25°C° 0 mm 4 mps 757 mmHg 87%
    04:00 +25°C° 0 mm 4 mps 757 mmHg 86%
    05:00 +25°C° 0 mm 3 mps 757 mmHg 86%
    06:00 +27°C° 0 mm 3 mps 757 mmHg 77%
    07:00 +28°C° 0 mm 3 mps 757 mmHg 68%
    08:00 +30°C° 0 mm 3 mps 757 mmHg 59%
    09:00 +31°C° 0 mm 3 mps 757 mmHg 57%
    10:00 +33°C° 0 mm 3 mps 757 mmHg 55%
    11:00 +33°C° 0 mm 4 mps 757 mmHg 53%
    12:00 +33°C° 0 mm 4 mps 757 mmHg 55%
    13:00 +33°C° 0 mm 5 mps 757 mmHg 56%
    14:00 +33°C° 0 mm 5 mps 756 mmHg 58%
    15:00 +32°C° 0 mm 5 mps 756 mmHg 62%
    16:00 +32°C° 0 mm 5 mps 756 mmHg 65%
    17:00 +30°C° 0 mm 5 mps 756 mmHg 69%
    18:00 +29°C° 0 mm 5 mps 756 mmHg 75%
    19:00 +28°C° 0 mm 5 mps 756 mmHg 81%
    20:00 +27°C° 0 mm 5 mps 756 mmHg 87%
    21:00 +27°C° 0 mm 5 mps 756 mmHg 88%
    22:00 +27°C° 0 mm 5 mps 756 mmHg 88%
    23:00 +26°C° 0 mm 5 mps 756 mmHg 88%

    26 September, Wednesday

    Time Temperature Precipitation Wind Pressure Humidity
    00:00 +26°C° 0 mm 5 mps 755 mmHg 88%
    01:00 +25°C° 0 mm 5 mps 755 mmHg 88%
    02:00 +25°C° 0 mm 5 mps 755 mmHg 88%
    03:00 +25°C° 0 mm 4 mps 755 mmHg 87%
    04:00 +25°C° 0 mm 4 mps 755 mmHg 86%
    05:00 +23°C° 0 mm 4 mps 755 mmHg 85%
    06:00 +26°C° 0 mm 3 mps 755 mmHg 76%
    07:00 +27°C° 0 mm 3 mps 755 mmHg 68%
    08:00 +29°C° 0 mm 3 mps 755 mmHg 59%
    09:00 +30°C° 0 mm 3 mps 755 mmHg 56%
    10:00 +31°C° 0 mm 3 mps 755 mmHg 53%
    11:00 +31°C° 0 mm 3 mps 756 mmHg 50%
    12:00 +31°C° 0 mm 3 mps 755 mmHg 52%
    13:00 +31°C° 0 mm 3 mps 755 mmHg 54%
    14:00 +32°C° 0 mm 4 mps 754 mmHg 56%
    15:00 +30°C° 0 mm 4 mps 754 mmHg 59%
    16:00 +30°C° 0 mm 3 mps 754 mmHg 61%
    17:00 +29°C° 0 mm 3 mps 754 mmHg 64%
    18:00 +29°C° 0 mm 3 mps 754 mmHg 67%
    19:00 +28°C° 0 mm 3 mps 754 mmHg 70%
    20:00 +27°C° 0 mm 3 mps 754 mmHg 73%
    21:00 +27°C° 0 mm 3 mps 754 mmHg 74%
    22:00 +27°C° 0 mm 3 mps 754 mmHg 76%
    23:00 +26°C° 0 mm 3 mps 754 mmHg 77%

    27 September, Thursday

    Time Temperature Precipitation Wind Pressure Humidity
    00:00 +26°C° 0 mm 3 mps 754 mmHg 77%
    01:00 +26°C° 0 mm 3 mps 753 mmHg 77%
    02:00 +26°C° 0 mm 2 mps 753 mmHg 76%
    03:00 +26°C° 0.1 mm 3 mps 753 mmHg 76%
    04:00 +25°C° 0.1 mm 3 mps 753 mmHg 75%
    05:00 +25°C° 0.1 mm 4 mps 752 mmHg 75%
    06:00 +26°C° 0.1 mm 4 mps 753 mmHg 71%
    07:00 +27°C° 0.1 mm 5 mps 753 mmHg 68%
    08:00 +28°C° 0.1 mm 5 mps 753 mmHg 64%
    09:00 +28°C° 0.1 mm 6 mps 753 mmHg 65%
    10:00 +28°C° 0.1 mm 7 mps 753 mmHg 67%
    11:00 +28°C° 0.1 mm 8 mps 754 mmHg 68%
    12:00 +27°C° 0 mm 8 mps 754 mmHg 67%
    13:00 +27°C° 0 mm 9 mps 753 mmHg 66%
    14:00 +26°C° 0 mm 9 mps 753 mmHg 65%
    15:00 +26°C° 0 mm 9 mps 754 mmHg 64%
    16:00 +24°C° 0 mm 9 mps 754 mmHg 63%
    17:00 +24°C° 0 mm 9 mps 754 mmHg 62%
    18:00 +23°C° 0 mm 9 mps 755 mmHg 64%
    19:00 +23°C° 0 mm 9 mps 755 mmHg 66%
    20:00 +23°C° 0 mm 9 mps 755 mmHg 69%
    21:00 +23°C° 0.1 mm 9 mps 756 mmHg 69%
    22:00 +23°C° 0.1 mm 10 mps 756 mmHg 69%
    23:00 +23°C° 0.1 mm 10 mps 756 mmHg 69%

    28 September, Friday

    Time Temperature Precipitation Wind Pressure Humidity
    00:00 +23°C° 0.2 mm 10 mps 756 mmHg 69%
    01:00 +23°C° 0.2 mm 10 mps 756 mmHg 70%
    02:00 +23°C° 0.2 mm 9 mps 756 mmHg 71%
    03:00 +23°C° 0.2 mm 9 mps 756 mmHg 71%
    04:00 +23°C° 0.2 mm 9 mps 756 mmHg 71%
    05:00 +23°C° 0.2 mm 9 mps 756 mmHg 72%
    06:00 +23°C° 0.4 mm 9 mps 757 mmHg 70%
    07:00 +24°C° 0.4 mm 8 mps 757 mmHg 68%
    08:00 +24°C° 0.4 mm 8 mps 757 mmHg 66%
    09:00 +26°C° 0.5 mm 8 mps 758 mmHg 64%
    10:00 +26°C° 0.5 mm 8 mps 758 mmHg 61%
    11:00 +27°C° 0.5 mm 8 mps 758 mmHg 59%
    12:00 +27°C° 0.8 mm 8 mps 758 mmHg 59%
    13:00 +27°C° 0.8 mm 8 mps 758 mmHg 58%
    14:00 +27°C° 0.8 mm 7 mps 758 mmHg 58%
    15:00 +26°C° 0.6 mm 7 mps 758 mmHg 61%
    16:00 +26°C° 0.6 mm 6 mps 758 mmHg 64%
    17:00 +24°C° 0.6 mm 6 mps 758 mmHg 67%
    18:00 +24°C° 0.3 mm 6 mps 758 mmHg 69%
    19:00 +24°C° 0.3 mm 6 mps 758 mmHg 70%
    20:00 +23°C° 0.3 mm 5 mps 758 mmHg 72%
    21:00 +23°C° 0.4 mm 5 mps 758 mmHg 73%
    22:00 +23°C° 0.4 mm 5 mps 758 mmHg 73%
    23:00 +23°C° 0.4 mm 5 mps 758 mmHg 74%
    Show more